Time,TemperatureF,DewpointF,PressureIn,WindDirection,WindDirectionDegrees,WindSpeedMPH,WindSpeedGustMPH,Humidity,HourlyPrecipIn,Conditions,Clouds,dailyrainin,SoftwareType,DateUTC
2013-09-14 00:00:00,51.7,50.6,29.81,NNW,347,1.0,1.0,96,0.00,,,0.00,Wunderground v.1.15,2013-09-14 04:00:00,
2013-09-14 00:05:00,51.7,50.6,29.80,WSW,254,2.0,2.0,96,0.00,,,0.00,Wunderground v.1.15,2013-09-14 04:05:00,
2013-09-14 00:15:00,51.6,50.5,29.80,NW,326,2.0,5.0,96,0.00,,,0.00,Wunderground v.1.15,2013-09-14 04:15:00,
2013-09-14 00:20:00,51.5,50.1,29.80,SW,234,2.0,2.0,95,0.00,,,0.00,Wunderground v.1.15,2013-09-14 04:20:00,
2013-09-14 00:25:00,51.3,49.9,29.81,SE,130,2.0,2.0,95,0.00,,,0.00,Wunderground v.1.15,2013-09-14 04:25:00,
2013-09-14 00:30:00,51.2,49.8,29.81,WNW,285,2.0,5.0,95,0.00,,,0.00,Wunderground v.1.15,2013-09-14 04:30:00,
2013-09-14 00:35:00,51.1,49.4,29.80,ESE,121,2.0,5.0,94,0.00,,,0.00,Wunderground v.1.15,2013-09-14 04:35:00,
2013-09-14 00:40:00,51.0,49.3,29.80,NW,313,2.0,2.0,94,0.00,,,0.00,Wunderground v.1.15,2013-09-14 04:40:00,
2013-09-14 00:45:00,50.9,49.2,29.80,NNE,15,3.0,4.0,94,0.00,,,0.00,Wunderground v.1.15,2013-09-14 04:45:00,
2013-09-14 00:50:00,50.8,49.1,29.80,West,269,2.0,2.0,94,0.00,,,0.00,Wunderground v.1.15,2013-09-14 04:50:00,
2013-09-14 00:55:00,50.8,49.1,29.80,NNW,340,2.0,2.0,94,0.00,,,0.00,Wunderground v.1.15,2013-09-14 04:55:00,
2013-09-14 01:00:00,50.7,49.0,29.80,NW,325,2.0,2.0,94,0.00,,,0.00,Wunderground v.1.15,2013-09-14 05:00:00,
2013-09-14 01:05:00,50.6,48.9,29.81,North,350,3.0,5.0,94,0.00,,,0.00,Wunderground v.1.15,2013-09-14 05:05:00,
2013-09-14 01:10:00,50.6,48.9,29.81,NW,314,3.0,3.0,94,0.00,,,0.00,Wunderground v.1.15,2013-09-14 05:10:00,
2013-09-14 01:15:00,50.6,48.9,29.81,NNW,328,3.0,3.0,94,0.00,,,0.00,Wunderground v.1.15,2013-09-14 05:15:00,
2013-09-14 01:20:00,50.6,49.2,29.81,North,355,3.0,3.0,95,0.00,,,0.00,Wunderground v.1.15,2013-09-14 05:20:00,
2013-09-14 01:25:00,50.6,49.2,29.81,North,355,3.0,3.0,95,0.00,,,0.00,Wunderground v.1.15,2013-09-14 05:25:00,
2013-09-14 01:30:00,50.5,49.1,29.82,NNW,334,3.0,4.0,95,0.00,,,0.00,Wunderground v.1.15,2013-09-14 05:30:00,
2013-09-14 01:35:00,50.5,49.1,29.82,West,259,2.0,4.0,95,0.00,,,0.00,Wunderground v.1.15,2013-09-14 05:35:00,
2013-09-14 01:45:00,50.4,49.3,29.82,West,279,2.0,4.0,96,0.00,,,0.00,Wunderground v.1.15,2013-09-14 05:45:00,
2013-09-14 01:50:00,50.4,49.3,29.82,North,360,2.0,4.0,96,0.00,,,0.00,Wunderground v.1.15,2013-09-14 05:50:00,
2013-09-14 01:55:00,50.4,49.3,29.82,WSW,242,2.0,2.0,96,0.00,,,0.01,Wunderground v.1.15,2013-09-14 05:55:00,
2013-09-14 02:00:00,50.4,49.3,29.82,NW,311,1.0,1.0,96,0.00,,,0.01,Wunderground v.1.15,2013-09-14 06:00:00,
2013-09-14 02:05:00,50.4,49.3,29.82,WNW,295,1.0,3.0,96,0.00,,,0.01,Wunderground v.1.15,2013-09-14 06:05:00,
2013-09-14 02:10:00,50.3,49.2,29.82,WNW,285,1.0,5.0,96,0.00,,,0.01,Wunderground v.1.15,2013-09-14 06:10:00,
2013-09-14 02:15:00,50.3,49.2,29.82,NNW,330,2.0,5.0,96,0.00,,,0.02,Wunderground v.1.15,2013-09-14 06:15:00,
2013-09-14 02:20:00,50.3,49.2,29.82,ENE,57,2.0,2.0,96,0.07,,,0.03,Wunderground v.1.15,2013-09-14 06:20:00,
2013-09-14 02:25:00,50.2,49.1,29.82,West,265,1.0,2.0,96,0.16,,,0.04,Wunderground v.1.15,2013-09-14 06:25:00,
2013-09-14 02:30:00,50.2,48.8,29.82,NW,313,2.0,2.0,95,0.13,,,0.05,Wunderground v.1.15,2013-09-14 06:30:00,
2013-09-14 02:35:00,50.1,49.0,29.82,NNW,331,2.0,4.0,96,0.15,,,0.06,Wunderground v.1.15,2013-09-14 06:35:00,
2013-09-14 02:40:00,50.0,48.9,29.83,WNW,283,1.0,2.0,96,0.11,,,0.07,Wunderground v.1.15,2013-09-14 06:40:00,
2013-09-14 02:45:00,50.0,48.9,29.83,NNW,328,2.0,2.0,96,0.17,,,0.08,Wunderground v.1.15,2013-09-14 06:45:00,
2013-09-14 02:55:00,49.8,48.7,29.83,WNW,298,1.0,1.0,96,0.11,,,0.10,Wunderground v.1.15,2013-09-14 06:55:00,
2013-09-14 03:00:00,49.8,48.7,29.83,WNW,298,0.0,0.0,96,0.18,,,0.12,Wunderground v.1.15,2013-09-14 07:00:00,
2013-09-14 03:05:00,49.8,48.7,29.83,North,5,0.0,0.0,96,0.11,,,0.13,Wunderground v.1.15,2013-09-14 07:05:00,
2013-09-14 03:10:00,49.7,48.6,29.83,WSW,256,0.0,2.0,96,0.20,,,0.14,Wunderground v.1.15,2013-09-14 07:10:00,
2013-09-14 03:15:00,49.7,48.6,29.84,NNE,22,1.0,2.0,96,0.09,,,0.15,Wunderground v.1.15,2013-09-14 07:15:00,
2013-09-14 03:30:00,49.6,48.5,29.84,SW,225,0.0,0.0,96,0.18,,,0.18,Wunderground v.1.15,2013-09-14 07:30:00,
2013-09-14 03:35:00,49.5,48.4,29.84,SW,225,0.0,0.0,96,0.11,,,0.19,Wunderground v.1.15,2013-09-14 07:35:00,
2013-09-14 03:40:00,49.5,48.4,29.84,SW,225,0.0,1.0,96,0.14,,,0.20,Wunderground v.1.15,2013-09-14 07:40:00,
2013-09-14 03:45:00,49.4,48.3,29.84,SW,225,0.0,2.0,96,0.11,,,0.21,Wunderground v.1.15,2013-09-14 07:45:00,
2013-09-14 03:55:00,49.3,48.2,29.84,WSW,240,1.0,2.0,96,0.20,,,0.24,Wunderground v.1.15,2013-09-14 07:55:00,
2013-09-14 04:00:00,49.3,48.2,29.84,WSW,240,1.0,1.0,96,0.20,,,0.25,Wunderground v.1.15,2013-09-14 08:00:00,
2013-09-14 04:05:00,49.3,48.2,29.84,WSW,240,0.0,1.0,96,0.13,,,0.27,Wunderground v.1.15,2013-09-14 08:05:00,
2013-09-14 04:10:00,49.2,48.1,29.85,WSW,240,0.0,1.0,96,0.13,,,0.28,Wunderground v.1.15,2013-09-14 08:10:00,
2013-09-14 04:15:00,49.2,48.1,29.85,WSW,240,0.0,1.0,96,0.10,,,0.28,Wunderground v.1.15,2013-09-14 08:15:00,
2013-09-14 04:20:00,49.2,48.1,29.85,WSW,240,0.0,1.0,96,0.18,,,0.30,Wunderground v.1.15,2013-09-14 08:20:00,
2013-09-14 04:25:00,49.2,48.1,29.85,WSW,240,0.0,1.0,96,0.11,,,0.31,Wunderground v.1.15,2013-09-14 08:25:00,
2013-09-14 04:30:00,49.2,48.1,29.85,WSW,240,0.0,0.0,96,0.15,,,0.32,Wunderground v.1.15,2013-09-14 08:30:00,
2013-09-14 04:40:00,49.2,48.1,29.85,NNW,334,1.0,1.0,96,0.11,,,0.33,Wunderground v.1.15,2013-09-14 08:40:00,
2013-09-14 04:45:00,49.1,48.0,29.85,NNW,334,0.0,1.0,96,0.11,,,0.34,Wunderground v.1.15,2013-09-14 08:45:00,
2013-09-14 04:50:00,49.1,48.0,29.85,NNW,334,0.0,0.0,96,0.07,,,0.35,Wunderground v.1.15,2013-09-14 08:50:00,
2013-09-14 04:55:00,49.0,47.9,29.85,NNW,334,0.0,0.0,96,0.15,,,0.36,Wunderground v.1.15,2013-09-14 08:55:00,
2013-09-14 05:00:00,49.0,48.2,29.85,NNW,334,0.0,2.0,97,0.08,,,0.36,Wunderground v.1.15,2013-09-14 09:00:00,
2013-09-14 05:05:00,48.9,48.1,29.85,NNW,334,0.0,2.0,97,0.07,,,0.37,Wunderground v.1.15,2013-09-14 09:05:00,
2013-09-14 05:10:00,48.9,48.1,29.85,NNW,334,1.0,1.0,97,0.07,,,0.37,Wunderground v.1.15,2013-09-14 09:10:00,
2013-09-14 05:15:00,48.9,48.1,29.86,NNW,334,0.0,1.0,97,0.04,,,0.37,Wunderground v.1.15,2013-09-14 09:15:00,
2013-09-14 05:20:00,48.8,48.0,29.86,NNW,334,0.0,0.0,97,0.04,,,0.38,Wunderground v.1.15,2013-09-14 09:20:00,
2013-09-14 05:30:00,48.7,47.9,29.86,NNW,334,0.0,0.0,97,0.06,,,0.39,Wunderground v.1.15,2013-09-14 09:30:00,
2013-09-14 05:35:00,48.7,47.9,29.86,NNW,334,0.0,0.0,97,0.10,,,0.40,Wunderground v.1.15,2013-09-14 09:35:00,
2013-09-14 05:40:00,48.7,47.9,29.86,NNW,334,0.0,0.0,97,0.09,,,0.40,Wunderground v.1.15,2013-09-14 09:40:00,
2013-09-14 05:45:00,48.7,47.9,29.86,NNW,334,0.0,1.0,97,0.05,,,0.40,Wunderground v.1.15,2013-09-14 09:45:00,
2013-09-14 05:50:00,48.7,47.9,29.86,NNW,334,1.0,1.0,97,0.05,,,0.41,Wunderground v.1.15,2013-09-14 09:50:00,
2013-09-14 05:55:00,48.7,47.9,29.87,NNW,334,1.0,2.0,97,0.05,,,0.41,Wunderground v.1.15,2013-09-14 09:55:00,
2013-09-14 06:00:00,48.7,47.9,29.87,NNW,334,1.0,1.0,97,0.04,,,0.41,Wunderground v.1.15,2013-09-14 10:00:00,
2013-09-14 06:05:00,48.7,47.9,29.87,NNW,334,1.0,1.0,97,0.00,,,0.41,Wunderground v.1.15,2013-09-14 10:05:00,
2013-09-14 06:10:00,48.7,47.9,29.87,WNW,293,1.0,4.0,97,0.00,,,0.41,Wunderground v.1.15,2013-09-14 10:10:00,
2013-09-14 06:15:00,48.7,47.9,29.87,West,272,1.0,4.0,97,0.00,,,0.42,Wunderground v.1.15,2013-09-14 10:15:00,
2013-09-14 06:20:00,48.7,47.9,29.87,North,360,2.0,2.0,97,0.22,,,0.44,Wunderground v.1.15,2013-09-14 10:20:00,
2013-09-14 06:25:00,48.7,47.9,29.87,North,360,2.0,2.0,97,0.09,,,0.44,Wunderground v.1.15,2013-09-14 10:25:00,
2013-09-14 06:35:00,48.6,47.8,29.88,WNW,302,1.0,2.0,97,0.15,,,0.47,Wunderground v.1.15,2013-09-14 10:35:00,
2013-09-14 06:40:00,48.6,47.8,29.88,NW,304,1.0,2.0,97,0.16,,,0.48,Wunderground v.1.15,2013-09-14 10:40:00,
2013-09-14 06:45:00,48.6,47.8,29.88,WNW,303,1.0,2.0,97,0.08,,,0.49,Wunderground v.1.15,2013-09-14 10:45:00,
2013-09-14 06:50:00,48.6,47.8,29.89,WNW,303,1.0,1.0,97,0.08,,,0.49,Wunderground v.1.15,2013-09-14 10:50:00,
2013-09-14 06:55:00,48.5,47.7,29.89,NW,316,0.0,1.0,97,0.08,,,0.50,Wunderground v.1.15,2013-09-14 10:55:00,
2013-09-14 07:00:00,48.5,47.7,29.89,SW,228,1.0,2.0,97,0.07,,,0.50,Wunderground v.1.15,2013-09-14 11:00:00,
2013-09-14 07:05:00,48.5,47.7,29.89,WSW,244,1.0,2.0,97,0.04,,,0.51,Wunderground v.1.15,2013-09-14 11:05:00,
2013-09-14 07:10:00,48.5,47.7,29.89,West,273,1.0,1.0,97,0.04,,,0.51,Wunderground v.1.15,2013-09-14 11:10:00,
2013-09-14 07:15:00,48.5,47.4,29.90,North,355,1.0,1.0,96,0.04,,,0.51,Wunderground v.1.15,2013-09-14 11:15:00,
2013-09-14 07:20:00,48.5,47.4,29.90,NW,316,1.0,1.0,96,0.04,,,0.51,Wunderground v.1.15,2013-09-14 11:20:00,
2013-09-14 07:25:00,48.6,47.5,29.90,WNW,282,1.0,2.0,96,0.00,,,0.51,Wunderground v.1.15,2013-09-14 11:25:00,
2013-09-14 07:30:00,48.6,47.5,29.90,WNW,295,0.0,2.0,96,0.00,,,0.51,Wunderground v.1.15,2013-09-14 11:30:00,
2013-09-14 07:35:00,48.6,47.5,29.90,ENE,58,1.0,2.0,96,0.00,,,0.52,Wunderground v.1.15,2013-09-14 11:35:00,
2013-09-14 07:40:00,48.7,47.6,29.91,West,278,1.0,1.0,96,0.00,,,0.52,Wunderground v.1.15,2013-09-14 11:40:00,
2013-09-14 07:45:00,48.7,47.6,29.91,SW,218,1.0,2.0,96,0.00,,,0.52,Wunderground v.1.15,2013-09-14 11:45:00,
2013-09-14 07:50:00,48.8,47.7,29.91,WSW,238,1.0,4.0,96,0.00,,,0.52,Wunderground v.1.15,2013-09-14 11:50:00,
2013-09-14 07:55:00,48.9,47.8,29.91,WNW,302,1.0,4.0,96,0.00,,,0.52,Wunderground v.1.15,2013-09-14 11:55:00,
2013-09-14 08:00:00,49.0,47.9,29.91,NW,324,1.0,1.0,96,0.00,,,0.52,Wunderground v.1.15,2013-09-14 12:00:00,
2013-09-14 08:05:00,49.1,48.0,29.91,West,273,1.0,1.0,96,0.00,,,0.52,Wunderground v.1.15,2013-09-14 12:05:00,
2013-09-14 08:15:00,49.3,48.2,29.92,WNW,292,2.0,3.0,96,0.00,,,0.52,Wunderground v.1.15,2013-09-14 12:15:00,
2013-09-14 08:20:00,49.5,48.4,29.92,NNE,18,1.0,4.0,96,0.00,,,0.52,Wunderground v.1.15,2013-09-14 12:20:00,
2013-09-14 08:25:00,49.7,48.6,29.92,WNW,292,1.0,4.0,96,0.00,,,0.52,Wunderground v.1.15,2013-09-14 12:25:00,
2013-09-14 08:30:00,49.9,48.8,29.92,North,355,2.0,2.0,96,0.00,,,0.52,Wunderground v.1.15,2013-09-14 12:30:00,
2013-09-14 08:35:00,50.0,48.9,29.92,NNW,337,2.0,2.0,96,0.00,,,0.52,Wunderground v.1.15,2013-09-14 12:35:00,
2013-09-14 08:40:00,50.0,48.6,29.92,NNW,348,2.0,2.0,95,0.00,,,0.52,Wunderground v.1.15,2013-09-14 12:40:00,
2013-09-14 08:45:00,50.0,48.6,29.92,West,277,3.0,3.0,95,0.00,,,0.52,Wunderground v.1.15,2013-09-14 12:45:00,
2013-09-14 08:50:00,50.1,48.7,29.92,South,175,2.0,2.0,95,0.00,,,0.52,Wunderground v.1.15,2013-09-14 12:50:00,
2013-09-14 08:55:00,50.1,48.7,29.92,NW,313,2.0,2.0,95,0.00,,,0.52,Wunderground v.1.15,2013-09-14 12:55:00,
2013-09-14 09:05:00,50.3,48.9,29.92,SW,214,1.0,2.0,95,0.00,,,0.52,Wunderground v.1.15,2013-09-14 13:05:00,
2013-09-14 09:10:00,50.2,48.5,29.92,NW,324,2.0,2.0,94,0.00,,,0.52,Wunderground v.1.15,2013-09-14 13:10:00,
2013-09-14 09:15:00,50.3,48.6,29.93,North,349,2.0,2.0,94,0.00,,,0.52,Wunderground v.1.15,2013-09-14 13:15:00,
2013-09-14 09:20:00,50.6,49.2,29.93,NW,306,2.0,2.0,95,0.00,,,0.52,Wunderground v.1.15,2013-09-14 13:20:00,
2013-09-14 09:25:00,50.9,49.2,29.93,WNW,299,1.0,1.0,94,0.00,,,0.52,Wunderground v.1.15,2013-09-14 13:25:00,
2013-09-14 09:30:00,51.1,49.4,29.93,North,351,1.0,1.0,94,0.00,,,0.52,Wunderground v.1.15,2013-09-14 13:30:00,
2013-09-14 09:35:00,51.2,49.5,29.94,North,355,1.0,2.0,94,0.00,,,0.52,Wunderground v.1.15,2013-09-14 13:35:00,
2013-09-14 09:40:00,51.0,49.0,29.94,North,355,2.0,2.0,93,0.00,,,0.52,Wunderground v.1.15,2013-09-14 13:40:00,
2013-09-14 09:45:00,50.8,49.1,29.94,NNW,336,2.0,2.0,94,0.00,,,0.52,Wunderground v.1.15,2013-09-14 13:45:00,
2013-09-14 09:50:00,50.6,48.7,29.94,NNW,333,3.0,3.0,93,0.00,,,0.52,Wunderground v.1.15,2013-09-14 13:50:00,
2013-09-14 09:55:00,50.5,48.8,29.94,NW,309,3.0,3.0,94,0.00,,,0.52,Wunderground v.1.15,2013-09-14 13:55:00,
2013-09-14 10:00:00,50.5,48.8,29.94,North,355,3.0,3.0,94,0.00,,,0.52,Wunderground v.1.15,2013-09-14 14:00:00,
2013-09-14 10:10:00,50.5,48.6,29.94,NNW,338,3.0,3.0,93,0.00,,,0.52,Wunderground v.1.15,2013-09-14 14:10:00,
2013-09-14 10:20:00,51.0,49.3,29.94,WNW,291,2.0,2.0,94,0.00,,,0.52,Wunderground v.1.15,2013-09-14 14:20:00,
2013-09-14 10:25:00,51.1,49.1,29.93,North,360,2.0,2.0,93,0.00,,,0.52,Wunderground v.1.15,2013-09-14 14:25:00,
2013-09-14 10:30:00,51.3,49.3,29.93,North,360,2.0,2.0,93,0.00,,,0.52,Wunderground v.1.15,2013-09-14 14:30:00,
2013-09-14 10:35:00,51.4,49.4,29.93,North,9,3.0,5.0,93,0.00,,,0.52,Wunderground v.1.15,2013-09-14 14:35:00,
2013-09-14 10:40:00,51.5,49.3,29.93,NW,325,3.0,3.0,92,0.00,,,0.52,Wunderground v.1.15,2013-09-14 14:40:00,
2013-09-14 10:45:00,51.8,49.8,29.93,North,355,2.0,3.0,93,0.00,,,0.52,Wunderground v.1.15,2013-09-14 14:45:00,
2013-09-14 10:50:00,52.1,49.8,29.93,West,279,1.0,1.0,92,0.00,,,0.52,Wunderground v.1.15,2013-09-14 14:50:00,
2013-09-14 10:55:00,52.2,49.9,29.93,NNE,25,2.0,2.0,92,0.00,,,0.52,Wunderground v.1.15,2013-09-14 14:55:00,
2013-09-14 11:00:00,52.1,49.8,29.93,North,349,3.0,4.0,92,0.00,,,0.52,Wunderground v.1.15,2013-09-14 15:00:00,
2013-09-14 11:05:00,51.8,49.3,29.93,NW,321,3.0,4.0,91,0.00,,,0.52,Wunderground v.1.15,2013-09-14 15:05:00,
2013-09-14 11:10:00,51.8,49.8,29.93,West,271,3.0,3.0,93,0.00,,,0.52,Wunderground v.1.15,2013-09-14 15:10:00,
2013-09-14 11:15:00,51.6,49.4,29.93,North,360,2.0,3.0,92,0.00,,,0.52,Wunderground v.1.15,2013-09-14 15:15:00,
2013-09-14 11:20:00,51.7,49.5,29.94,NW,311,2.0,3.0,92,0.00,,,0.52,Wunderground v.1.15,2013-09-14 15:20:00,
2013-09-14 11:25:00,51.8,49.8,29.94,NW,321,1.0,3.0,93,0.00,,,0.52,Wunderground v.1.15,2013-09-14 15:25:00,
2013-09-14 11:30:00,51.9,49.9,29.94,NW,321,1.0,1.0,93,0.00,,,0.52,Wunderground v.1.15,2013-09-14 15:30:00,
2013-09-14 11:40:00,51.9,49.1,29.94,WSW,258,2.0,3.0,90,0.00,,,0.52,Wunderground v.1.15,2013-09-14 15:40:00,
2013-09-14 11:45:00,52.0,49.5,29.94,NNE,14,2.0,3.0,91,0.00,,,0.52,Wunderground v.1.15,2013-09-14 15:45:00,
2013-09-14 11:50:00,52.0,49.5,29.95,South,188,2.0,6.0,91,0.00,,,0.52,Wunderground v.1.15,2013-09-14 15:50:00,
2013-09-14 11:55:00,51.8,49.3,29.94,West,275,3.0,6.0,91,0.00,,,0.52,Wunderground v.1.15,2013-09-14 15:55:00,
2013-09-14 12:00:00,51.7,49.2,29.94,SW,226,3.0,3.0,91,0.00,,,0.52,Wunderground v.1.15,2013-09-14 16:00:00,
2013-09-14 12:05:00,51.8,49.3,29.95,WNW,296,3.0,4.0,91,0.00,,,0.52,Wunderground v.1.15,2013-09-14 16:05:00,
2013-09-14 12:10:00,52.0,49.5,29.95,SW,228,2.0,4.0,91,0.00,,,0.52,Wunderground v.1.15,2013-09-14 16:10:00,
2013-09-14 12:15:00,52.2,49.7,29.94,WSW,253,3.0,4.0,91,0.00,,,0.52,Wunderground v.1.15,2013-09-14 16:15:00,
2013-09-14 12:20:00,52.7,49.8,29.94,West,274,4.0,4.0,90,0.00,,,0.52,Wunderground v.1.15,2013-09-14 16:20:00,
2013-09-14 12:25:00,52.8,49.3,29.95,WSW,248,4.0,6.0,88,0.00,,,0.52,Wunderground v.1.15,2013-09-14 16:25:00,
2013-09-14 12:30:00,52.5,49.0,29.95,WSW,258,5.0,7.0,88,0.00,,,0.52,Wunderground v.1.15,2013-09-14 16:30:00,
2013-09-14 12:35:00,52.3,48.9,29.95,West,277,5.0,7.0,88,0.00,,,0.52,Wunderground v.1.15,2013-09-14 16:35:00,
2013-09-14 12:40:00,52.4,49.3,29.95,WSW,244,5.0,5.0,89,0.00,,,0.52,Wunderground v.1.15,2013-09-14 16:40:00,
2013-09-14 12:45:00,52.4,49.3,29.94,SSW,200,5.0,5.0,89,0.00,,,0.52,Wunderground v.1.15,2013-09-14 16:45:00,
2013-09-14 12:50:00,52.5,49.4,29.94,WSW,244,5.0,5.0,89,0.00,,,0.52,Wunderground v.1.15,2013-09-14 16:50:00,
2013-09-14 12:55:00,52.9,49.7,29.94,NW,309,3.0,5.0,89,0.00,,,0.52,Wunderground v.1.15,2013-09-14 16:55:00,
2013-09-14 13:05:00,53.4,49.9,29.94,WSW,246,4.0,5.0,88,0.00,,,0.52,Wunderground v.1.15,2013-09-14 17:05:00,
2013-09-14 13:10:00,53.8,50.3,29.94,SSW,194,3.0,5.0,88,0.00,,,0.52,Wunderground v.1.15,2013-09-14 17:10:00,
2013-09-14 13:15:00,54.2,50.1,29.94,WSW,238,2.0,3.0,86,0.00,,,0.52,Wunderground v.1.15,2013-09-14 17:15:00,
2013-09-14 13:20:00,54.4,50.3,29.94,West,269,2.0,3.0,86,0.00,,,0.52,Wunderground v.1.15,2013-09-14 17:20:00,
2013-09-14 13:25:00,54.5,50.1,29.94,North,5,2.0,2.0,85,0.00,,,0.52,Wunderground v.1.15,2013-09-14 17:25:00,
2013-09-14 13:30:00,54.5,49.8,29.94,West,261,3.0,3.0,84,0.00,,,0.52,Wunderground v.1.15,2013-09-14 17:30:00,
2013-09-14 13:35:00,54.6,50.5,29.94,West,260,4.0,4.0,86,0.00,,,0.52,Wunderground v.1.15,2013-09-14 17:35:00,
2013-09-14 13:40:00,54.1,50.0,29.94,West,270,4.0,7.0,86,0.00,,,0.52,Wunderground v.1.15,2013-09-14 17:40:00,
2013-09-14 13:45:00,53.8,49.7,29.94,WSW,244,5.0,5.0,86,0.00,,,0.52,Wunderground v.1.15,2013-09-14 17:45:00,
2013-09-14 13:50:00,53.8,49.7,29.94,SW,227,5.0,8.0,86,0.00,,,0.52,Wunderground v.1.15,2013-09-14 17:50:00,
2013-09-14 13:55:00,53.7,49.3,29.94,WNW,301,5.0,5.0,85,0.00,,,0.52,Wunderground v.1.15,2013-09-14 17:55:00,
2013-09-14 14:00:00,53.6,48.9,29.94,WSW,242,5.0,9.0,84,0.00,,,0.52,Wunderground v.1.15,2013-09-14 18:00:00,
2013-09-14 14:05:00,53.5,49.4,29.94,WSW,241,4.0,9.0,86,0.00,,,0.52,Wunderground v.1.15,2013-09-14 18:05:00,
2013-09-14 14:10:00,53.4,49.3,29.94,SW,220,6.0,6.0,86,0.00,,,0.52,Wunderground v.1.15,2013-09-14 18:10:00,
2013-09-14 14:15:00,53.2,49.4,29.95,West,269,6.0,6.0,87,0.00,,,0.52,Wunderground v.1.15,2013-09-14 18:15:00,
2013-09-14 14:25:00,53.1,49.0,29.94,WSW,242,4.0,5.0,86,0.00,,,0.52,Wunderground v.1.15,2013-09-14 18:25:00,
2013-09-14 14:30:00,53.1,49.0,29.95,SW,225,4.0,4.0,86,0.00,,,0.52,Wunderground v.1.15,2013-09-14 18:30:00,
2013-09-14 14:35:00,53.1,49.0,29.95,WSW,238,4.0,4.0,86,0.00,,,0.52,Wunderground v.1.15,2013-09-14 18:35:00,
2013-09-14 14:40:00,53.0,48.9,29.95,West,269,4.0,7.0,86,0.00,,,0.52,Wunderground v.1.15,2013-09-14 18:40:00,
2013-09-14 14:45:00,53.0,48.9,29.95,WNW,291,4.0,7.0,86,0.00,,,0.52,Wunderground v.1.15,2013-09-14 18:45:00,
2013-09-14 14:50:00,53.0,48.6,29.95,WSW,257,4.0,4.0,85,0.00,,,0.52,Wunderground v.1.15,2013-09-14 18:50:00,
2013-09-14 14:55:00,53.1,49.0,29.94,SSW,211,3.0,4.0,86,0.00,,,0.52,Wunderground v.1.15,2013-09-14 18:55:00,
2013-09-14 15:00:00,53.2,49.4,29.95,WSW,250,3.0,3.0,87,0.00,,,0.52,Wunderground v.1.15,2013-09-14 19:00:00,
2013-09-14 15:05:00,53.4,49.3,29.95,SW,231,2.0,4.0,86,0.00,,,0.52,Wunderground v.1.15,2013-09-14 19:05:00,
2013-09-14 15:10:00,53.6,49.2,29.95,WSW,244,3.0,3.0,85,0.00,,,0.52,Wunderground v.1.15,2013-09-14 19:10:00,
2013-09-14 15:15:00,54.0,49.9,29.95,West,265,2.0,3.0,86,0.00,,,0.52,Wunderground v.1.15,2013-09-14 19:15:00,
2013-09-14 15:25:00,55.0,49.9,29.95,West,275,1.0,6.0,83,0.00,,,0.52,Wunderground v.1.15,2013-09-14 19:25:00,
2013-09-14 15:30:00,55.3,50.5,29.95,NNE,14,2.0,2.0,84,0.00,,,0.52,Wunderground v.1.15,2013-09-14 19:30:00,
2013-09-14 15:35:00,55.5,50.4,29.95,North,350,2.0,2.0,83,0.00,,,0.52,Wunderground v.1.15,2013-09-14 19:35:00,
2013-09-14 15:40:00,55.4,50.0,29.95,North,360,2.0,3.0,82,0.00,,,0.52,Wunderground v.1.15,2013-09-14 19:40:00,
2013-09-14 15:45:00,55.0,49.9,29.95,North,9,3.0,3.0,83,0.00,,,0.52,Wunderground v.1.15,2013-09-14 19:45:00,
2013-09-14 15:50:00,55.0,50.6,29.95,North,9,2.0,2.0,85,0.00,,,0.52,Wunderground v.1.15,2013-09-14 19:50:00,
2013-09-14 15:55:00,55.1,50.4,29.95,North,9,1.0,4.0,84,0.00,,,0.52,Wunderground v.1.15,2013-09-14 19:55:00,
2013-09-14 16:00:00,55.2,50.1,29.95,North,9,2.0,2.0,83,0.00,,,0.52,Wunderground v.1.15,2013-09-14 20:00:00,
2013-09-14 16:05:00,55.1,50.0,29.95,NNW,344,2.0,2.0,83,0.00,,,0.52,Wunderground v.1.15,2013-09-14 20:05:00,
2013-09-14 16:10:00,55.2,50.4,29.95,NNW,344,1.0,3.0,84,0.00,,,0.52,Wunderground v.1.15,2013-09-14 20:10:00,
2013-09-14 16:15:00,55.1,50.0,29.95,NNW,346,2.0,3.0,83,0.00,,,0.52,Wunderground v.1.15,2013-09-14 20:15:00,
2013-09-14 16:20:00,54.6,50.2,29.96,North,355,3.0,4.0,85,0.00,,,0.52,Wunderground v.1.15,2013-09-14 20:20:00,
2013-09-14 16:25:00,54.3,49.9,29.96,NW,317,2.0,4.0,85,0.00,,,0.52,Wunderground v.1.15,2013-09-14 20:25:00,
2013-09-14 16:30:00,54.2,50.1,29.96,NW,317,1.0,2.0,86,0.00,,,0.52,Wunderground v.1.15,2013-09-14 20:30:00,
2013-09-14 16:35:00,54.1,50.0,29.96,NW,317,1.0,2.0,86,0.00,,,0.52,Wunderground v.1.15,2013-09-14 20:35:00,
2013-09-14 16:40:00,54.0,49.9,29.96,NW,306,1.0,1.0,86,0.00,,,0.52,Wunderground v.1.15,2013-09-14 20:40:00,
2013-09-14 16:50:00,53.9,49.8,29.97,NNW,345,1.0,1.0,86,0.00,,,0.52,Wunderground v.1.15,2013-09-14 20:50:00,
2013-09-14 16:55:00,53.9,49.8,29.97,NNW,345,0.0,1.0,86,0.00,,,0.52,Wunderground v.1.15,2013-09-14 20:55:00,
2013-09-14 17:00:00,53.9,50.1,29.98,NNW,345,0.0,1.0,87,0.00,,,0.52,Wunderground v.1.15,2013-09-14 21:00:00,
2013-09-14 17:05:00,53.8,50.0,29.98,NNW,345,0.0,1.0,87,0.00,,,0.52,Wunderground v.1.15,2013-09-14 21:05:00,
2013-09-14 17:10:00,53.8,50.0,29.98,NNW,345,0.0,0.0,87,0.00,,,0.52,Wunderground v.1.15,2013-09-14 21:10:00,
2013-09-14 17:15:00,53.7,49.9,29.99,NNW,345,0.0,0.0,87,0.00,,,0.52,Wunderground v.1.15,2013-09-14 21:15:00,
2013-09-14 17:20:00,53.7,49.9,29.99,NNW,345,0.0,0.0,87,0.00,,,0.52,Wunderground v.1.15,2013-09-14 21:20:00,
2013-09-14 17:25:00,53.5,49.4,29.99,West,259,1.0,1.0,86,0.00,,,0.52,Wunderground v.1.15,2013-09-14 21:25:00,
2013-09-14 17:30:00,53.4,49.0,29.99,West,273,2.0,2.0,85,0.00,,,0.52,Wunderground v.1.15,2013-09-14 21:30:00,
2013-09-14 17:35:00,53.4,49.0,29.99,NNW,329,1.0,2.0,85,0.00,,,0.52,Wunderground v.1.15,2013-09-14 21:35:00,
2013-09-14 17:40:00,53.4,49.0,30.00,SW,220,1.0,1.0,85,0.00,,,0.52,Wunderground v.1.15,2013-09-14 21:40:00,
2013-09-14 17:45:00,53.4,49.3,30.00,SW,220,1.0,1.0,86,0.00,,,0.52,Wunderground v.1.15,2013-09-14 21:45:00,
2013-09-14 17:50:00,53.2,48.8,30.00,WSW,254,1.0,1.0,85,0.00,,,0.52,Wunderground v.1.15,2013-09-14 21:50:00,
2013-09-14 17:55:00,53.1,49.0,30.00,WSW,254,1.0,1.0,86,0.00,,,0.52,Wunderground v.1.15,2013-09-14 21:55:00,
2013-09-14 18:00:00,52.9,48.5,30.00,West,278,2.0,5.0,85,0.00,,,0.52,Wunderground v.1.15,2013-09-14 22:00:00,
2013-09-14 18:05:00,52.7,48.3,30.00,SW,223,4.0,5.0,85,0.00,,,0.52,Wunderground v.1.15,2013-09-14 22:05:00,
2013-09-14 18:10:00,52.5,48.1,30.00,West,271,4.0,4.0,85,0.00,,,0.52,Wunderground v.1.15,2013-09-14 22:10:00,
2013-09-14 18:15:00,52.4,48.0,30.01,SW,225,4.0,4.0,85,0.00,,,0.52,Wunderground v.1.15,2013-09-14 22:15:00,
2013-09-14 18:25:00,52.1,47.7,30.01,WSW,242,4.0,4.0,85,0.00,,,0.52,Wunderground v.1.15,2013-09-14 22:25:00,
2013-09-14 18:30:00,52.0,47.6,30.01,WSW,254,3.0,3.0,85,0.00,,,0.52,Wunderground v.1.15,2013-09-14 22:30:00,
2013-09-14 18:35:00,51.9,47.5,30.01,WSW,241,2.0,3.0,85,0.00,,,0.52,Wunderground v.1.15,2013-09-14 22:35:00,
2013-09-14 18:40:00,51.8,47.7,30.01,WSW,241,2.0,2.0,86,0.00,,,0.52,Wunderground v.1.15,2013-09-14 22:40:00,
2013-09-14 18:45:00,51.8,48.1,30.01,WSW,241,0.0,2.0,87,0.00,,,0.52,Wunderground v.1.15,2013-09-14 22:45:00,
2013-09-14 18:50:00,51.7,48.3,30.02,WSW,241,0.0,0.0,88,0.00,,,0.52,Wunderground v.1.15,2013-09-14 22:50:00,
2013-09-14 19:00:00,51.5,48.7,30.02,WSW,241,0.0,0.0,90,0.00,,,0.52,Wunderground v.1.15,2013-09-14 23:00:00,
2013-09-14 19:10:00,51.3,48.8,30.02,WSW,241,0.0,0.0,91,0.00,,,0.52,Wunderground v.1.15,2013-09-14 23:10:00,
2013-09-14 19:15:00,51.2,48.7,30.02,WSW,241,0.0,0.0,91,0.00,,,0.52,Wunderground v.1.15,2013-09-14 23:15:00,
2013-09-14 19:20:00,51.1,48.9,30.02,WSW,241,0.0,0.0,92,0.00,,,0.52,Wunderground v.1.15,2013-09-14 23:20:00,
2013-09-14 19:25:00,50.8,48.6,30.02,WSW,241,0.0,0.0,92,0.00,,,0.52,Wunderground v.1.15,2013-09-14 23:25:00,
2013-09-14 19:30:00,50.8,48.6,30.03,WSW,241,0.0,0.0,92,0.00,,,0.52,Wunderground v.1.15,2013-09-14 23:30:00,
2013-09-14 19:35:00,50.8,48.8,30.03,WSW,241,0.0,0.0,93,0.00,,,0.52,Wunderground v.1.15,2013-09-14 23:35:00,
2013-09-14 19:40:00,50.7,48.7,30.03,WSW,241,0.0,0.0,93,0.00,,,0.52,Wunderground v.1.15,2013-09-14 23:40:00,
2013-09-14 19:50:00,50.5,48.6,30.03,WSW,241,0.0,0.0,93,0.00,,,0.52,Wunderground v.1.15,2013-09-14 23:50:00,
2013-09-14 19:55:00,50.5,48.8,30.03,WSW,241,0.0,2.0,94,0.00,,,0.52,Wunderground v.1.15,2013-09-14 23:55:00,
2013-09-14 20:00:00,50.4,48.7,30.04,WSW,241,0.0,0.0,94,0.00,,,0.52,Wunderground v.1.15,2013-09-15 00:00:00,
2013-09-14 20:05:00,50.4,48.7,30.04,WSW,241,0.0,0.0,94,0.00,,,0.52,Wunderground v.1.15,2013-09-15 00:05:00,
2013-09-14 20:10:00,50.3,48.6,30.04,WSW,241,0.0,0.0,94,0.00,,,0.52,Wunderground v.1.15,2013-09-15 00:10:00,
2013-09-14 20:15:00,50.1,48.4,30.04,WSW,241,0.0,0.0,94,0.00,,,0.52,Wunderground v.1.15,2013-09-15 00:15:00,
2013-09-14 20:20:00,49.8,48.1,30.04,WSW,241,0.0,0.0,94,0.00,,,0.52,Wunderground v.1.15,2013-09-15 00:20:00,
2013-09-14 20:25:00,49.5,47.8,30.05,WSW,241,0.0,0.0,94,0.00,,,0.52,Wunderground v.1.15,2013-09-15 00:25:00,
2013-09-14 20:30:00,49.3,47.6,30.04,WSW,241,0.0,0.0,94,0.00,,,0.52,Wunderground v.1.15,2013-09-15 00:30:00,
2013-09-14 20:40:00,49.1,47.7,30.05,WSW,241,0.0,0.0,95,0.00,,,0.52,Wunderground v.1.15,2013-09-15 00:40:00,
2013-09-14 20:45:00,49.0,47.6,30.05,WSW,241,0.0,0.0,95,0.00,,,0.52,Wunderground v.1.15,2013-09-15 00:45:00,
2013-09-14 20:50:00,48.9,47.5,30.04,WSW,241,0.0,0.0,95,0.00,,,0.52,Wunderground v.1.15,2013-09-15 00:50:00,
2013-09-14 20:55:00,48.9,47.5,30.05,WSW,241,0.0,0.0,95,0.00,,,0.52,Wunderground v.1.15,2013-09-15 00:55:00,
2013-09-14 21:05:00,48.6,47.5,30.05,WSW,241,0.0,0.0,96,0.00,,,0.52,Wunderground v.1.15,2013-09-15 01:05:00,
2013-09-14 21:10:00,48.5,47.4,30.05,WSW,241,0.0,0.0,96,0.00,,,0.52,Wunderground v.1.15,2013-09-15 01:10:00,
2013-09-14 21:15:00,48.4,47.3,30.05,WSW,241,0.0,0.0,96,0.00,,,0.52,Wunderground v.1.15,2013-09-15 01:15:00,
2013-09-14 21:20:00,48.3,47.2,30.06,WSW,241,0.0,0.0,96,0.00,,,0.52,Wunderground v.1.15,2013-09-15 01:20:00,
2013-09-14 21:25:00,48.2,47.1,30.06,WSW,241,0.0,0.0,96,0.00,,,0.52,Wunderground v.1.15,2013-09-15 01:25:00,
2013-09-14 21:30:00,48.0,46.9,30.06,WSW,241,0.0,0.0,96,0.00,,,0.52,Wunderground v.1.15,2013-09-15 01:30:00,
2013-09-14 21:40:00,47.4,46.0,30.06,WSW,241,0.0,0.0,95,0.00,,,0.52,Wunderground v.1.15,2013-09-15 01:40:00,
2013-09-14 21:45:00,47.1,45.7,30.06,WSW,241,0.0,0.0,95,0.00,,,0.52,Wunderground v.1.15,2013-09-15 01:45:00,
2013-09-14 21:50:00,46.8,45.4,30.06,WSW,241,0.0,0.0,95,0.00,,,0.52,Wunderground v.1.15,2013-09-15 01:50:00,
2013-09-14 21:55:00,46.4,45.0,30.06,WSW,241,0.0,0.0,95,0.00,,,0.52,Wunderground v.1.15,2013-09-15 01:55:00,
2013-09-14 22:00:00,46.0,44.6,30.06,WSW,241,0.0,0.0,95,0.00,,,0.52,Wunderground v.1.15,2013-09-15 02:00:00,
2013-09-14 22:05:00,45.6,44.3,30.06,WSW,241,0.0,0.0,95,0.00,,,0.52,Wunderground v.1.15,2013-09-15 02:05:00,
2013-09-14 22:10:00,45.3,44.2,30.06,WSW,241,0.0,0.0,96,0.00,,,0.52,Wunderground v.1.15,2013-09-15 02:10:00,
2013-09-14 22:15:00,44.9,43.6,30.06,WSW,241,0.0,0.0,95,0.00,,,0.52,Wunderground v.1.15,2013-09-15 02:15:00,
2013-09-14 22:20:00,44.5,43.2,30.06,WSW,241,0.0,0.0,95,0.00,,,0.52,Wunderground v.1.15,2013-09-15 02:20:00,
2013-09-14 22:25:00,44.2,42.9,30.06,WSW,241,0.0,0.0,95,0.00,,,0.52,Wunderground v.1.15,2013-09-15 02:25:00,
2013-09-14 22:30:00,44.0,42.7,30.06,WSW,241,0.0,0.0,95,0.00,,,0.52,Wunderground v.1.15,2013-09-15 02:30:00,
2013-09-14 22:35:00,43.8,42.7,30.07,WSW,241,0.0,0.0,96,0.00,,,0.52,Wunderground v.1.15,2013-09-15 02:35:00,
2013-09-14 22:40:00,43.7,42.6,30.07,WSW,241,0.0,0.0,96,0.00,,,0.52,Wunderground v.1.15,2013-09-15 02:40:00,
2013-09-14 22:45:00,43.4,42.3,30.07,WSW,241,0.0,0.0,96,0.00,,,0.52,Wunderground v.1.15,2013-09-15 02:45:00,
2013-09-14 22:50:00,43.0,41.9,30.07,WSW,241,0.0,0.0,96,0.00,,,0.52,Wunderground v.1.15,2013-09-15 02:50:00,
2013-09-14 22:55:00,42.8,41.7,30.07,WSW,241,0.0,0.0,96,0.00,,,0.52,Wunderground v.1.15,2013-09-15 02:55:00,
2013-09-14 23:00:00,42.6,41.5,30.07,WSW,241,0.0,2.0,96,0.00,,,0.52,Wunderground v.1.15,2013-09-15 03:00:00,
2013-09-14 23:05:00,42.4,41.3,30.07,WSW,241,0.0,2.0,96,0.00,,,0.52,Wunderground v.1.15,2013-09-15 03:05:00,
2013-09-14 23:10:00,42.1,41.0,30.07,WSW,241,0.0,0.0,96,0.00,,,0.52,Wunderground v.1.15,2013-09-15 03:10:00,
2013-09-14 23:15:00,41.8,40.7,30.07,WSW,241,0.0,0.0,96,0.00,,,0.52,Wunderground v.1.15,2013-09-15 03:15:00,
2013-09-14 23:25:00,41.4,40.3,30.07,WSW,241,0.0,0.0,96,0.00,,,0.52,Wunderground v.1.15,2013-09-15 03:25:00,
2013-09-14 23:30:00,41.3,40.2,30.07,WSW,241,0.0,0.0,96,0.00,,,0.52,Wunderground v.1.15,2013-09-15 03:30:00,
2013-09-14 23:35:00,41.1,40.0,30.08,WSW,241,0.0,0.0,96,0.00,,,0.52,Wunderground v.1.15,2013-09-15 03:35:00,
2013-09-14 23:40:00,41.1,40.0,30.08,WSW,241,0.0,0.0,96,0.00,,,0.52,Wunderground v.1.15,2013-09-15 03:40:00,
2013-09-14 23:50:00,40.9,39.8,30.08,WSW,241,0.0,0.0,96,0.00,,,0.52,Wunderground v.1.15,2013-09-15 03:50:00,
2013-09-14 23:55:00,40.8,39.7,30.08,WSW,241,0.0,1.0,96,0.00,,,0.52,Wunderground v.1.15,2013-09-15 03:55:00,